Location: ??????
(38.1303°N, 24.0039°E)
Time: 04:21:33
(UTC+00:00)

SeaSat 1 - Pass Details

Date: 20 June 2021
Orbit: 745 x 746 km, 108.0° (Epoch: 25 July)

Event Time Altitude Azimuth Distance (km) Brightness Sun altitude
Rises 00:51:46 0° 30° (NNE) 3,195 7.3 -19.5°
Reaches altitude 10° 00:54:07 10° 36° (NE) 2,267 6.2 -19.3°
Maximum altitude 00:58:54 50° 112° (ESE) 942 3.0 -18.7°
Enters shadow 01:01:32 25° 176° (S) 1,474 3.6 -18.4°
